Location: Bishopstone
(51.0167°N, 1.9000°W)
Time: 19:03:42
(UTC+00:00)

Cosmos 1707 - Pass Details

Date: 16 September 2019
Orbit: 517 x 530 km, 82.5° (Epoch: 23 October)

Event Time Altitude Azimuth Distance (km) Brightness Sun altitude
Rises 18:49:55 0° 359° (N) 2,682 6.5 -5.4°
Reaches altitude 10° 18:52:22 10° 13° (NNE) 1,789 5.4 -5.8°
Maximum altitude 18:55:39 25° 69° (ENE) 1,110 3.9 -6.3°
Drops below altitude 10° 18:58:55 10° 126° (SE) 1,780 4.8 -6.8°
Enters shadow 19:00:01 - 134° (SE) 2,169 5.3 -7.0°
